THOR AGENA B DEB, 2092

Orbit data source: Space-Track

THOR AGENA B DEB, 2092 is space debris in LEO originally from a launch on Mon, 29 Nov 1965 UTC launched from the Air Force Western Test Range (AFWTR). Debris objects in space refer to the collection of defunct objects orbiting the Earth. Examples of debris include non-operational satellites, rocket bodies, and fragments generated from explosions, collisions, or faulty payload assembly.

Loading next visibility...
Identifier
2092, 1965-098H
Orbit
LEO
Country
Flag of USUS
Related business
Manufacturer
Unknown
Mission
Spacecraft
Bus & Motor
Unknown
Mass
~1 kg wet, ~1 kg dry
Launch date (UTC)
1965-11-29 (61 years ago)
Launch vehicle
Unknown
Launch site
Air Force Western Test Range (AFWTR)
Object type
Payload
Rocket body
Debris
Shape & HBR
Unknown
Radar Cross Section
Medium (>0.1 m² and <1 m²)

Expand to show TLE details & history
Last TLE update: 1 week ago

TLE from 1 week ago
0 THOR AGENA B DEB
1 02092U 65098H   26155.06456936  .00001539  00000-0  49753-3 0  9998
2 02092  79.8641  12.0180 1296336 133.4549 238.2021 12.35073132678805
Epoch: 2026-06-04T01:32Z
TLE epoch observation values (Epoch: 2026-06-04T01:32:58.792Z)
Latitude
-0.00002°
Longitude
96.25883°
Altitude
2,156.79 km
Speed
6.559 km/s
True Right ascension
00h 48m 04s
True Declination
0° 00' 00"
Sunlit
Object was in daylight at epoch
Visualization orbit readout
Latitude
Unknown
Longitude
Unknown
Altitude
Unknown
Speed
Unknown
Apparent Right ascension
Unknown
Apparent Declination
Unknown
Sunlit
N/A
Visualization observer readout
Local Sidereal Time
05:00:27
Azimuth
Unknown
Elevation
Unknown
Doppler factor
Unknown
Orbital elements
Apogee altitude
2,549.48 km
Perigee altitude
500.463 km
Semi-major axis
7,903.109 km
Eccentricity
0.12963
Inclination
79.8641°
RAAN
12.018°
Arg. of periapsis
133.4549°
True anomaly
226.65043°
Mean anomaly
238.2021°
Eccentric anomaly
232.32346°
Mean motion
3.0892 °/min
Orbital period
116.53 mins
BSTAR
0.00049753
Loading maneuver chart data...
Computing Atmospheric mass density...
Loading historical data...
Loading historical data...
Loading historical data...
Loading historical data...
Loading historical data...
Loading historical data...
Loading historical data...

Documentation

Showing up to 5 results
|